Home   Weather   France   Biarritz   Past weeks
Flag for France

Past Weather in Biarritz, Pyrénées-Atlantiques, France — Yesterday and Last 2 Weeks

Currently: 55 °F. Rain. Partly cloudy. (Weather station: Biarritz Airport, France). See more current weather

Past Weather in Biarritz — Graph

°F

Biarritz Temperature Yesterday

Maximum temperature yesterday: 63 °F (at 2:30 pm)
Minimum temperature yesterday: 54 °F (at 12:30 am)
Average temperature yesterday: 58 °F

High & Low Weather Summary for the Past Weeks

 TemperatureHumidityPressure
High81 °F (May 10, 2:00 pm)100% (May 5, 5:30 am)30.33 "Hg (May 5, 5:30 am)
Low50 °F (May 6, 3:00 am)36% (May 10, 8:30 pm)29.68 "Hg (May 13, 5:00 pm)
Average59 °F82%29.95 "Hg
* Reported May 5 2:00 am — May 20 2:00 am, Biarritz. Weather by CustomWeather, © 2024

Note: Actual official high and low records may vary slightly from our data, if they occured in-between our weather recording intervals... More about our weather records

Biarritz Weather History for the Previous 24 Hours

Scroll right to see more
 ConditionsComfort  
Time TempWeatherWind HumidityBarometerVisibility
2:00 am
Mon, May 20
55 °FRain. Mostly cloudy.8 mph100%29.89 "Hg4 mi
1:30 am55 °FHeavy rain. Fog.7 mph100%29.89 "Hg3 mi
1:00 am57 °FHeavy rain. Fog.7 mph94%29.89 "Hg3 mi
12:30 am57 °FRain. Fog.7 mph100%29.89 "Hg3 mi
12:00 am57 °FHeavy rain. Mostly cloudy.3 mph94%29.89 "Hg4 mi
11:30 pm
Sun, May 19
57 °FLight rain. Partly cloudy.5 mph100%29.89 "HgN/A
11:00 pm57 °FRain. Overcast.3 mph100%29.89 "Hg4 mi
10:00 pm57 °FRain. Fog.2 mph100%29.89 "Hg3 mi
9:30 pm59 °FRain. Partly cloudy.5 mph94%29.89 "Hg4 mi
9:00 pm59 °FRain. Fog.6 mph94%29.86 "Hg3 mi
8:30 pm59 °FPartly sunny.5 mph88%29.86 "HgN/A
8:00 pm59 °FPartly sunny.6 mph94%29.86 "HgN/A
7:00 pm59 °FBroken clouds.7 mph88%29.86 "HgN/A
6:30 pm61 °FPartly sunny.7 mph83%29.89 "HgN/A
6:00 pm61 °FPartly sunny.8 mph83%29.86 "HgN/A
5:30 pm61 °FPartly sunny.10 mph83%29.86 "HgN/A
5:00 pm63 °FBroken clouds.9 mph83%29.86 "HgN/A
4:00 pm61 °FPartly sunny.12 mph88%29.86 "HgN/A
3:30 pm61 °FMostly cloudy.13 mph88%29.89 "HgN/A
3:00 pm63 °FMostly cloudy.13 mph83%29.86 "HgN/A
2:30 pm63 °FMostly cloudy.14 mph83%29.89 "HgN/A
2:00 pm61 °FOvercast.13 mph88%29.89 "HgN/A
1:30 pm61 °FMostly cloudy.10 mph88%29.89 "HgN/A
1:00 pm61 °FPartly sunny.13 mph88%29.89 "HgN/A
12:30 pm61 °FPartly sunny.14 mph88%29.89 "HgN/A
12:00 pm61 °FPartly sunny.6 mph88%29.89 "HgN/A
11:30 am61 °FPartly sunny.7 mph83%29.89 "HgN/A
11:00 am59 °FPartly sunny.5 mph94%29.89 "HgN/A
10:30 am57 °FBroken clouds.2 mph100%29.89 "HgN/A
10:00 am57 °FPartly sunny.2 mph100%29.92 "HgN/A
9:30 am57 °FBroken clouds.3 mph100%29.89 "HgN/A
9:00 am55 °FPartly sunny.3 mph100%29.89 "Hg6 mi
8:30 am55 °FLight rain. Broken clouds.5 mph100%29.89 "Hg4 mi
8:00 am55 °FPartly sunny.1 mph100%29.89 "Hg4 mi
7:30 am55 °FFog.2 mph100%29.89 "Hg2 mi
7:00 am54 °FLight rain. Fog.3 mph100%29.86 "Hg2 mi
6:30 am54 °FFog.3 mph100%29.86 "Hg2 mi
6:00 am55 °FFog.3 mph100%29.86 "Hg2 mi
5:30 am55 °FFog.2 mph100%29.89 "Hg3 mi
5:00 am55 °FOvercast.2 mph100%29.89 "Hg4 mi
4:30 am55 °FOvercast.3 mph100%29.89 "HgN/A
4:00 am55 °FPassing clouds.2 mph100%29.89 "Hg4 mi
3:30 am54 °FFog.5 mph100%29.89 "Hg3 mi
3:00 am54 °FFog.3 mph100%29.89 "Hg3 mi
Weather by CustomWeather, © 2024

See weather overview